Flag for Cambodia Weather past 2 weeks in Phnom Penh, Cambodia

Now
81 °F

Partly cloudy.


Feels Like: 86 °F
Forecast: 76 / 96 °F
Wind: 1 mph from North

Location: Phnom-Penh / Pochentong

Current Time: Aug 28, 2015 at 2:30:26 AM

Latest Report: Aug 28, 2015 at 1:00 AM


Visibility: 6 mi

Pressure: 29.80 "Hg

Humidity: 84%

Dew point: 75 °F

Location of Phnom PenhLocation

Historic Weather in Phnom Penh — Graph

°F

Phnom Penh temperature yesterday

Maximum temperature yesterday: 93 °F (at 3:30 PM)
Minimum temperature yesterday: 75 °F (at 8:30 PM)
Average temperature yesterday: 85 °F

Past Weeks' High & Low Weather Summary

 TemperatureHumidityPressure
High97 °F (Aug 15, 3:30 PM)100% (Aug 27, 8:30 PM)29.86 "Hg (Aug 27, 8:30 PM)
Low75 °F (Aug 27, 8:30 PM)19% (Aug 24, 6:00 PM)29.62 "Hg (Aug 21, 3:30 PM)
Average86 °F70%29.75 "Hg
* Reported Aug 13 1:00 AM — Aug 28 1:00 AM, Phnom Penh, Weather by CustomWeather, © 2015

Note: Actual official high and low records may vary slightly from our data, if they occured in-between our weather recording intervals... More about our weather records

Advertising

Phnom Penh weather history for previous 24 hours

 ConditionsComfort  
Time TempWeatherWind HumidityBarometerVisibility
1:00 AM
Fri, Aug 28
81 °FPartly cloudy.1 mph84%29.80 "Hg6 mi
12:30 AM81 °FPartly cloudy.1 mph84%29.80 "Hg6 mi
12:00 AM81 °FPartly cloudy.No wind84%29.83 "Hg6 mi
11:30 PM
Thu, Aug 27
81 °FPartly cloudy.2 mph84%29.83 "Hg6 mi
11:00 PM81 °FPartly cloudy.2 mph84%29.83 "Hg6 mi
10:30 PM81 °FPartly cloudy.5 mph84%29.83 "Hg6 mi
10:00 PM81 °FPartly cloudy.5 mph84%29.83 "Hg6 mi
9:30 PM81 °FPartly cloudy.3 mph79%29.83 "Hg6 mi
9:00 PM81 °FPartly cloudy.7 mph84%29.83 "Hg6 mi
8:30 PM75 °FPartly cloudy.5 mph100%29.80 "Hg6 mi
8:00 PM82 °FPartly cloudy.6 mph74%29.80 "Hg6 mi
7:30 PM82 °FPartly cloudy.3 mph74%29.77 "Hg6 mi
7:00 PM82 °FPartly cloudy.1 mph74%29.77 "Hg6 mi
6:30 PM81 °FPartly cloudy.2 mph79%29.77 "Hg6 mi
6:00 PM81 °FBroken clouds.6 mph79%29.74 "HgN/A
5:30 PM81 °FBroken clouds.9 mph84%29.74 "HgN/A
5:00 PM84 °FBroken clouds.8 mph74%29.74 "HgN/A
4:30 PM91 °FBroken clouds.5 mph52%29.74 "HgN/A
4:00 PM91 °FBroken clouds.3 mph52%29.71 "HgN/A
3:30 PM93 °FBroken clouds.No wind49%29.71 "HgN/A
3:00 PM91 °FBroken clouds.3 mph49%29.74 "HgN/A
2:30 PM91 °FBroken clouds.3 mph52%29.74 "HgN/A
2:00 PM91 °FPartly sunny.5 mph49%29.74 "HgN/A
1:30 PM91 °FPartly sunny.3 mph52%29.77 "HgN/A
1:00 PM90 °FPartly sunny.3 mph55%29.77 "HgN/A
12:30 PM91 °FPartly sunny.5 mph52%29.80 "HgN/A
12:00 PM90 °FPartly sunny.5 mph55%29.80 "HgN/A
11:30 AM90 °FPartly sunny.5 mph55%29.80 "HgN/A
11:00 AM90 °FScattered clouds.6 mph55%29.83 "HgN/A
10:30 AM88 °FScattered clouds.6 mph59%29.83 "HgN/A
9:30 AM86 °FPartly sunny.8 mph62%29.83 "HgN/A
9:00 AM84 °FPartly sunny.8 mph62%29.83 "HgN/A
8:30 AM84 °FPartly sunny.8 mph66%29.83 "HgN/A
8:00 AM82 °FPartly sunny.8 mph70%29.83 "HgN/A
7:30 AM82 °FPartly sunny.8 mph70%29.83 "HgN/A
7:00 AM81 °FPartly sunny.7 mph79%29.80 "HgN/A
6:30 AM81 °FBroken clouds.8 mph84%29.80 "Hg6 mi
6:00 AM79 °FBroken clouds.5 mph89%29.80 "Hg6 mi
Weather by CustomWeather, © 2015

See weather overviewHow to use our weather pages